Volver al catálogo

COSMOS 1595

GLONASS

ActivoNavegaciónMEO
NORAD 15261·PAYLOAD·🇷🇺 Russia

Lanzado Sep 4, 1984 desde Baikonur Cosmodrome

Loading…

Próximos Pases (próximas 24 horas)

TLE

EnvejeciendoSource: Space-Track

Época: Aug 29, 2026, 21:14 UTC

1 15261U 84095C   26241.88484604  .00000029  00000-0  00000+0 0  9998
2 15261  64.8575  68.6779 0047913 217.3670 320.4342  2.13102090301094

Sigue COSMOS 1595 en tiempo real con AllMySat

Download on the App Store